Location: Newark
(47.5167°N, 8.8000°E)
Time: 01:57:00
(UTC+00:00)

Envisat - Visible Passes

Search period start: 14 October 2019 00:00
Search period end: 24 October 2019 00:00
Orbit: 764 x 766 km, 98.1° (Epoch: 13 October)

Date Brightness Start Highest point End Pass type
(mag) Time Alt. Az. Time Alt. Az. Time Alt. Az.
14 Oct 6.4 04:59:25 10° ENE 05:01:52 13° E 05:04:17 10° ESE visible
14 Oct 4.1 17:54:27 10° S 17:59:22 49° W 18:04:19 10° NNW visible
15 Oct 3.0 17:17:27 10° SSE 17:22:32 82° ENE 17:27:38 10° NNW visible
15 Oct 6.0 18:59:31 10° WSW 19:02:12 14° W 19:04:55 10° NW visible
16 Oct 5.0 18:20:38 10° SSW 18:25:02 29° W 18:29:28 10° NW visible
17 Oct 6.7 04:49:33 10° ENE 04:50:26 10° E 04:51:18 10° E visible
17 Oct 3.6 17:43:03 10° S 17:48:04 61° W 17:53:06 10° NNW visible
18 Oct 3.0 17:06:16 10° SSE 17:11:17 67° ENE 17:16:21 10° N visible
18 Oct 5.8 18:47:24 10° SW 18:50:48 18° W 18:54:13 10° NW visible
19 Oct 6.1 05:12:50 10° NE 05:16:18 18° E 05:19:45 10° SE visible
19 Oct 4.6 18:09:02 10° SSW 18:13:41 36° W 18:18:23 10° NNW visible
20 Oct 3.2 17:31:42 10° S 17:36:46 75° WSW 17:41:53 10° NNW visible
20 Oct 6.3 19:16:12 10° W 19:16:40 10° W 19:17:11 10° WNW visible
21 Oct 3.1 16:55:08 10° SSE 17:00:03 54° ENE 17:05:01 10° N visible
21 Oct 5.5 18:35:31 10° SW 18:39:25 22° W 18:43:20 10° NW visible
22 Oct 6.2 05:02:06 10° NE 05:04:54 15° E 05:07:40 10° ESE visible
22 Oct 4.2 17:57:31 10° S 18:02:22 45° W 18:07:14 10° NNW visible
23 Oct 3.0 17:20:25 10° SSE 17:25:30 88° ENE 17:30:38 10° NNW visible
23 Oct 6.1 19:02:55 10° WSW 19:05:14 13° W 19:07:35 10° WNW visible
